Tampa, FL

12:38 PM EDT on July 27, 2016 (GMT -0400)
MacDill Air Force Base

Weather History for KMCF - May, 2013

Change the Weather History Date:

Thursday, May 23, 2013

  Actual Average Record
Temperature  
Mean Temperature 79 °F -  
Max Temperature 89 °F 86 °F 94 °F (2015)
Min Temperature 69 °F 69 °F 65 °F (2012)
Cooling Degree Days 14    
Growing Degree Days 29 (Base 50)    
Moisture  
Dew Point 72 °F    
Average Humidity 85    
Maximum Humidity 100    
Minimum Humidity 54    
Precipitation  
Precipitation 0.00 in - - ()
Sea Level Pressure  
Sea Level Pressure 30.00 in    
Wind  
Wind Speed 3 mph (NW)    
Max Wind Speed 12 mph    
Max Gust Speed -    
Visibility 10 miles    
Events      
Averages and records for this station are not official NWS values.
T = Trace of Precipitation, MM = Missing Value Source: NWS Daily Summary

Daily Weather History Graph

Daily Weather History Graph

Search for Another Location

Airport or City:

Trip Planner

Search our weather history database for the weather conditions in past years. The results will help you decide how hot, cold, wet, or windy it might be!

Date:

Astronomy

May. 23, 2013 Rise Set
Actual Time 6:36 AM EDT 8:17 PM EDT
Civil Twilight 6:10 AM EDT 8:43 PM EDT
Nautical Twilight 5:39 AM EDT 9:14 PM EDT
Astronomical Twilight 5:07 AM EDT 9:47 PM EDT
Moon 6:54 PM EDT (5/23) 5:12 AM EDT (5/23)
Length of Visible Light 14h 32m
Length of Day
13h 40m
Waxing Gibbous, 97% of the Moon is Illuminated
May 23
Waxing Gibbous
May 25
Full
May 31
Last Quarter
Jun 8
New
Jun 16
First Quarter

Hourly Weather History & Observations

Time (EDT) Temp. Heat Index Dew Point Humidity Pressure Visibility Wind Dir Wind Speed Gust Speed Precip Events Conditions
12:58 AM 71.6 °F - 69.8 °F 94% 29.96 in 10.0 mi Calm Calm - N/A   Clear
1:58 AM 72.5 °F - 72.5 °F 100% 29.95 in 10.0 mi ESE 2.3 mph - N/A   Clear
2:58 AM 70.5 °F - 70.2 °F 99% 29.94 in 10.0 mi Calm Calm - N/A   Clear
3:58 AM 69.4 °F - 69.1 °F 99% 29.95 in 10.0 mi Calm Calm - N/A   Clear
4:58 AM 69.1 °F - 68.7 °F 99% 29.96 in 10.0 mi Calm Calm - N/A   Clear
5:58 AM 69.1 °F - 68.7 °F 99% 29.98 in 10.0 mi Calm Calm - N/A   Scattered Clouds
6:18 AM 69.8 °F - 69.8 °F 100% 29.97 in 10.0 mi Calm Calm - N/A   Mostly Cloudy
6:19 AM 69.8 °F - 69.8 °F 100% 29.97 in 10.0 mi Calm Calm - N/A   Mostly Cloudy
6:58 AM 70.0 °F - 70.0 °F 100% 30.00 in 10.0 mi Calm Calm - 0.00 in   Overcast
7:23 AM 71.6 °F - 71.6 °F 100% 29.99 in 10.0 mi Calm Calm - N/A   Mostly Cloudy
7:28 AM 71.6 °F - 71.6 °F 100% 29.99 in 10.0 mi Calm Calm - N/A   Scattered Clouds
7:58 AM 75.7 °F - 75.7 °F 100% 30.01 in 10.0 mi Calm Calm - N/A   Partly Cloudy
8:58 AM 80.6 °F 86.4 °F 75.6 °F 85% 30.03 in 10.0 mi NNW 6.9 mph - N/A   Scattered Clouds
9:58 AM 84.4 °F 92.0 °F 74.3 °F 72% 30.04 in 10.0 mi Variable 5.8 mph - N/A   Partly Cloudy
10:58 AM 87.1 °F 95.4 °F 73.9 °F 65% 30.03 in 10.0 mi Variable 4.6 mph - N/A   Clear
11:58 AM 89.1 °F 97.0 °F 73.2 °F 59% 30.04 in 10.0 mi NW 5.8 mph - N/A   Clear
12:58 PM 89.4 °F 95.3 °F 70.7 °F 54% 30.03 in 10.0 mi WNW 5.8 mph - N/A   Partly Cloudy
1:58 PM 87.8 °F 96.6 °F 74.3 °F 64% 30.02 in 10.0 mi WSW 4.6 mph - N/A   Scattered Clouds
2:58 PM 89.4 °F 98.9 °F 74.3 °F 61% 30.01 in 10.0 mi NNW 11.5 mph - N/A   Clear
3:58 PM 87.1 °F 94.9 °F 73.8 °F 64% 29.99 in 10.0 mi NNW 11.5 mph - N/A   Clear
4:58 PM 85.8 °F 93.0 °F 73.2 °F 66% 29.98 in 10.0 mi NNW 11.5 mph - N/A   Clear
5:58 PM 85.3 °F 91.5 °F 72.3 °F 65% 29.98 in 10.0 mi NNW 10.4 mph - N/A   Clear
6:58 PM 82.9 °F 89.4 °F 73.9 °F 74% 29.98 in 10.0 mi NNW 9.2 mph - N/A   Clear
7:58 PM 80.4 °F 85.5 °F 74.3 °F 82% 29.99 in 10.0 mi NNW 9.2 mph - N/A   Clear
8:58 PM 78.1 °F - 73.9 °F 87% 30.01 in 10.0 mi NNW 6.9 mph - N/A   Clear
9:58 PM 76.5 °F - 73.6 °F 91% 30.02 in 10.0 mi NW 4.6 mph - N/A   Clear
10:58 PM 75.7 °F - 73.9 °F 94% 30.03 in 10.0 mi NW 4.6 mph - N/A   Clear
11:58 PM 74.5 °F - 73.4 °F 96% 30.03 in 10.0 mi NW 4.6 mph - N/A   Clear